Location: Altmatt
(47.1333°N, 8.7000°E)
Time: 18:02:34
(UTC+00:00)

Cosmos 2219 Rocket - Pass Details

Date: 13 July 2020
Orbit: 827 x 848 km, 71.0° (Epoch: 11 August)

Event Time Altitude Azimuth Distance (km) Brightness Sun altitude
Rises 20:02:01 0° 215° (SW) 3,356 5.3 -6.7°
Reaches altitude 10° 20:04:28 10° 219° (SW) 2,429 4.6 -7.0°
Maximum altitude 20:09:59 63° 300° (WNW) 928 2.8 -7.7°
Drops below altitude 10° 20:15:34 10° 22° (NNE) 2,456 4.9 -8.4°
Sets 20:18:04 0° 26° (NNE) 3,398 5.6 -8.7°
